Location: Newark
(44.2003°N, 3.2583°E)
Time: 18:08:14
(UTC+00:00)

SR - Pass Details

Date: 25 October 2019
Orbit: 574 x 882 km, 66.7° (Epoch: 14 November)

Event Time Altitude Azimuth Distance (km) Brightness Sun altitude
Rises 02:55:34 0° 334° (NNW) 3,416 - -35.8°
Exits shadow 02:58:40 - 353° (N) 2,681 ? -35.3°
Reaches altitude 10° 02:59:38 10° 2° (N) 2,520 ? -35.1°
Maximum altitude 03:02:13 13° 28° (NNE) 2,331 ? -34.7°
Drops below altitude 10° 03:04:49 10° 54° (NE) 2,544 ? -34.2°
Sets 03:08:58 0° 82° (E) 3,479 ? -33.5°
